When you browse on this site, cookies collect data to enhance your experience and personalize the content and advertising you see.
Visit our Privacy Policy to learn more. By continuing to use the site, you agree to this use of cookies and data.
  • In Deutschland
  • Länderverzeichnis
  • Für 7 Tage
  • Wassertemperatur
  • Satellitenkarten
  • Wetterkarte
  • Widgets
  • user-avatar
    Anmelden

    Stündliche Wetter London

    Heute, 17 Dezember, Montag

    Zeit Temperatur Niederschläge Wind Luftdruck Luftfeuchtigkeit
    00:00 +6°C° 0 mm 4 m/S 754 mmHg 90%
    01:00 +5°C° 0 mm 5 m/S 755 mmHg 89%
    02:00 +5°C° 0 mm 5 m/S 755 mmHg 88%
    03:00 +5°C° 0 mm 5 m/S 756 mmHg 87%
    04:00 +3°C° 0 mm 5 m/S 757 mmHg 88%
    05:00 +4°C° 0 mm 4 m/S 758 mmHg 88%
    06:00 +4°C° 0 mm 4 m/S 759 mmHg 89%
    07:00 +4°C° 0 mm 4 m/S 759 mmHg 89%
    08:00 +4°C° 0 mm 4 m/S 760 mmHg 89%
    09:00 +4°C° 0 mm 4 m/S 761 mmHg 89%
    10:00 +5°C° 0 mm 4 m/S 761 mmHg 85%
    11:00 +7°C° 0 mm 4 m/S 762 mmHg 81%
    12:00 +8°C° 0 mm 4 m/S 762 mmHg 77%
    13:00 +8°C° 0 mm 4 m/S 762 mmHg 79%
    14:00 +9°C° 0 mm 3 m/S 762 mmHg 81%
    15:00 +9°C° 0 mm 3 m/S 762 mmHg 83%
    16:00 +8°C° 0 mm 3 m/S 762 mmHg 85%
    17:00 +7°C° 0 mm 4 m/S 762 mmHg 87%
    18:00 +7°C° 0 mm 4 m/S 762 mmHg 90%
    19:00 +7°C° 0 mm 4 m/S 762 mmHg 90%
    20:00 +7°C° 0 mm 4 m/S 762 mmHg 90%
    21:00 +7°C° 0 mm 5 m/S 762 mmHg 90%
    22:00 +8°C° 0 mm 5 m/S 762 mmHg 90%
    23:00 +8°C° 0 mm 5 m/S 762 mmHg 91%

    Morgen, 18 Dezember, Dienstag

    Zeit Temperatur Niederschläge Wind Luftdruck Luftfeuchtigkeit
    00:00 +8°C° 0 mm 6 m/S 761 mmHg 91%
    01:00 +8°C° 0 mm 6 m/S 761 mmHg 91%
    02:00 +8°C° 0 mm 6 m/S 760 mmHg 90%
    03:00 +8°C° 0 mm 6 m/S 760 mmHg 90%
    04:00 +9°C° 0 mm 6 m/S 760 mmHg 89%
    05:00 +9°C° 0 mm 6 m/S 759 mmHg 88%
    06:00 +9°C° 0 mm 7 m/S 759 mmHg 87%
    07:00 +9°C° 0 mm 7 m/S 758 mmHg 86%
    08:00 +9°C° 0 mm 8 m/S 758 mmHg 84%
    09:00 +7°C° 0 mm 8 m/S 758 mmHg 83%
    10:00 +8°C° 0 mm 9 m/S 757 mmHg 79%
    11:00 +8°C° 0 mm 9 m/S 756 mmHg 75%
    12:00 +8°C° 0 mm 10 m/S 755 mmHg 71%
    13:00 +8°C° 0.3 mm 9 m/S 754 mmHg 71%
    14:00 +8°C° 0.3 mm 9 m/S 753 mmHg 71%
    15:00 +7°C° 0.3 mm 9 m/S 753 mmHg 71%
    16:00 +7°C° 0.2 mm 9 m/S 752 mmHg 73%
    17:00 +7°C° 0.2 mm 9 m/S 751 mmHg 74%
    18:00 +7°C° 0.2 mm 9 m/S 751 mmHg 76%
    19:00 +7°C° 1.2 mm 8 m/S 751 mmHg 80%
    20:00 +7°C° 1.2 mm 8 m/S 751 mmHg 83%
    21:00 +8°C° 1.2 mm 7 m/S 751 mmHg 87%
    22:00 +8°C° 0.2 mm 6 m/S 751 mmHg 87%
    23:00 +7°C° 0.2 mm 5 m/S 752 mmHg 87%

    übermorgen, 19 Dezember, Mittwoch

    Zeit Temperatur Niederschläge Wind Luftdruck Luftfeuchtigkeit
    00:00 +8°C° 0.2 mm 3 m/S 752 mmHg 86%
    01:00 +7°C° 0 mm 4 m/S 752 mmHg 87%
    02:00 +6°C° 0 mm 4 m/S 753 mmHg 87%
    03:00 +6°C° 0 mm 4 m/S 753 mmHg 87%
    04:00 +7°C° 0.2 mm 4 m/S 753 mmHg 88%
    05:00 +7°C° 0.2 mm 4 m/S 753 mmHg 88%
    06:00 +7°C° 0.2 mm 4 m/S 753 mmHg 89%
    07:00 +7°C° 0.7 mm 4 m/S 753 mmHg 89%
    08:00 +7°C° 0.7 mm 4 m/S 754 mmHg 90%
    09:00 +7°C° 0.7 mm 4 m/S 754 mmHg 91%
    10:00 +7°C° 0.3 mm 4 m/S 754 mmHg 88%
    11:00 +7°C° 0.3 mm 4 m/S 754 mmHg 85%
    12:00 +8°C° 0.3 mm 4 m/S 754 mmHg 81%
    13:00 +8°C° 0 mm 4 m/S 754 mmHg 81%
    14:00 +8°C° 0 mm 3 m/S 754 mmHg 80%
    15:00 +8°C° 0 mm 3 m/S 754 mmHg 79%
    16:00 +8°C° 0.1 mm 3 m/S 754 mmHg 81%
    17:00 +7°C° 0.1 mm 3 m/S 755 mmHg 83%
    18:00 +7°C° 0.1 mm 3 m/S 755 mmHg 85%
    19:00 +7°C° 0.2 mm 3 m/S 755 mmHg 85%
    20:00 +7°C° 0.2 mm 3 m/S 755 mmHg 84%
    21:00 +7°C° 0.2 mm 3 m/S 755 mmHg 84%
    22:00 +5°C° 0 mm 3 m/S 755 mmHg 84%
    23:00 +5°C° 0 mm 4 m/S 755 mmHg 83%

    20 Dezember, Donnerstag

    Zeit Temperatur Niederschläge Wind Luftdruck Luftfeuchtigkeit
    00:00 +5°C° 0 mm 4 m/S 755 mmHg 83%
    01:00 +5°C° 0 mm 4 m/S 756 mmHg 84%
    02:00 +5°C° 0 mm 4 m/S 756 mmHg 84%
    03:00 +5°C° 0 mm 4 m/S 756 mmHg 84%
    04:00 +5°C° 0 mm 4 m/S 756 mmHg 84%
    05:00 +5°C° 0 mm 4 m/S 756 mmHg 85%
    06:00 +5°C° 0 mm 4 m/S 756 mmHg 85%
    07:00 +5°C° 0.1 mm 5 m/S 756 mmHg 84%
    08:00 +6°C° 0.1 mm 5 m/S 756 mmHg 83%
    09:00 +6°C° 0.1 mm 5 m/S 756 mmHg 82%
    10:00 +7°C° 0.2 mm 6 m/S 756 mmHg 79%
    11:00 +7°C° 0.2 mm 6 m/S 755 mmHg 76%
    12:00 +8°C° 0.2 mm 7 m/S 755 mmHg 73%
    13:00 +8°C° 0.2 mm 6 m/S 755 mmHg 74%
    14:00 +8°C° 0.2 mm 6 m/S 755 mmHg 75%
    15:00 +8°C° 0.2 mm 6 m/S 755 mmHg 76%
    16:00 +7°C° 0 mm 5 m/S 755 mmHg 78%
    17:00 +7°C° 0 mm 5 m/S 755 mmHg 79%
    18:00 +6°C° 0 mm 4 m/S 755 mmHg 81%
    19:00 +6°C° 0 mm 4 m/S 755 mmHg 82%
    20:00 +6°C° 0 mm 4 m/S 756 mmHg 84%
    21:00 +5°C° 0 mm 3 m/S 756 mmHg 85%
    22:00 +7°C° 0.1 mm 3 m/S 755 mmHg 86%
    23:00 +7°C° 0.1 mm 3 m/S 755 mmHg 88%

    21 Dezember, Freitag

    Zeit Temperatur Niederschläge Wind Luftdruck Luftfeuchtigkeit
    00:00 +7°C° 0.1 mm 3 m/S 754 mmHg 89%
    01:00 +8°C° 0.9 mm 3 m/S 754 mmHg 92%
    02:00 +8°C° 0.9 mm 3 m/S 753 mmHg 94%
    03:00 +9°C° 0.9 mm 3 m/S 753 mmHg 97%
    04:00 +8°C° 1.2 mm 4 m/S 752 mmHg 96%
    05:00 +10°C° 1.2 mm 4 m/S 751 mmHg 95%
    06:00 +10°C° 1.2 mm 5 m/S 750 mmHg 95%
    07:00 +10°C° 1.7 mm 6 m/S 750 mmHg 94%
    08:00 +11°C° 1.7 mm 7 m/S 749 mmHg 93%
    09:00 +12°C° 1.7 mm 8 m/S 748 mmHg 91%
    10:00 +11°C° 0.1 mm 9 m/S 749 mmHg 85%
    11:00 +10°C° 0.1 mm 9 m/S 750 mmHg 78%
    12:00 +9°C° 0.1 mm 10 m/S 750 mmHg 71%
    13:00 +10°C° 0 mm 9 m/S 751 mmHg 71%
    14:00 +9°C° 0 mm 8 m/S 753 mmHg 71%
    15:00 +9°C° 0 mm 7 m/S 754 mmHg 71%
    16:00 +9°C° 0 mm 7 m/S 754 mmHg 74%
    17:00 +8°C° 0 mm 7 m/S 755 mmHg 77%
    18:00 +8°C° 0 mm 7 m/S 755 mmHg 80%
    19:00 +8°C° 0 mm 7 m/S 755 mmHg 80%
    20:00 +9°C° 0 mm 7 m/S 755 mmHg 79%
    21:00 +9°C° 0 mm 7 m/S 755 mmHg 79%
    22:00 +9°C° 0.1 mm 7 m/S 755 mmHg 80%
    23:00 +9°C° 0.1 mm 8 m/S 755 mmHg 81%

    22 Dezember, Samstag

    Zeit Temperatur Niederschläge Wind Luftdruck Luftfeuchtigkeit
    00:00 +10°C° 0.1 mm 8 m/S 755 mmHg 82%
    01:00 +9°C° 0 mm 8 m/S 756 mmHg 80%
    02:00 +7°C° 0 mm 8 m/S 756 mmHg 79%
    03:00 +8°C° 0 mm 7 m/S 756 mmHg 77%
    04:00 +8°C° 0 mm 7 m/S 757 mmHg 77%
    05:00 +6°C° 0 mm 7 m/S 758 mmHg 77%
    06:00 +6°C° 0 mm 7 m/S 758 mmHg 77%
    07:00 +7°C° 0 mm 6 m/S 759 mmHg 78%
    08:00 +7°C° 0 mm 6 m/S 759 mmHg 80%
    09:00 +7°C° 0 mm 5 m/S 760 mmHg 81%
    10:00 +8°C° 0 mm 5 m/S 760 mmHg 80%
    11:00 +8°C° 0 mm 5 m/S 761 mmHg 80%
    12:00 +9°C° 0 mm 5 m/S 761 mmHg 79%
    13:00 +10°C° 0 mm 4 m/S 761 mmHg 82%
    14:00 +10°C° 0 mm 4 m/S 761 mmHg 84%
    15:00 +10°C° 0 mm 3 m/S 761 mmHg 87%
    16:00 +9°C° 0 mm 3 m/S 761 mmHg 89%
    17:00 +9°C° 0 mm 3 m/S 761 mmHg 92%
    18:00 +8°C° 0 mm 2 m/S 762 mmHg 94%
    19:00 +8°C° 0 mm 2 m/S 762 mmHg 95%
    20:00 +8°C° 0 mm 2 m/S 762 mmHg 95%
    21:00 +8°C° 0 mm 2 m/S 762 mmHg 96%
    22:00 +8°C° 0 mm 2 m/S 762 mmHg 96%
    23:00 +9°C° 0 mm 2 m/S 761 mmHg 97%
    Mehr zeigen